Simultaneous Nadir Overpasses (SNOs) Predictions

Prediction of SNOs between METOP-C and LANDSAT-8 Satellite Orbit:

Table of predicted SNOs for the next 14.0 days since TLE Epoch: 4/20/2024
Index Date (METOP-C) Time (METOP-C) Lat,Lon (METOP-C) SZA (METOP-C ) Date (LANDSAT-8) Time (LANDSAT-8) Lat,Lon (LANDSAT-8) SZA (LANDSAT-8 ) Distance(km) Time Diff (sec)
1 04/21/2024 16:58:44 81.04, -36.67 70.81 04/21/2024 16:59:32 81.05, -36.70 70.83 0.70 48
2 04/21/2024 17:49:23 -81.06, 131.28 109.12 04/21/2024 17:48:58 -81.07, 131.24 109.13 0.60 25
3 04/24/2024 12:33:09 81.04, 29.67 69.89 04/24/2024 12:33:47 81.04, 29.69 69.91 0.50 38
4 04/24/2024 13:23:48 -81.06,-162.40 110.05 04/24/2024 13:23:13 -81.07,-162.35 110.05 0.96 35
5 04/27/2024 08:07:33 81.03, 95.81 68.97 04/27/2024 08:08:00 81.03, 95.96 69.00 2.56 27
6 04/27/2024 08:58:11 -81.07, -95.90 110.92 04/27/2024 08:57:26 -81.06, -96.06 110.97 2.93 45
7 04/30/2024 03:41:56 81.04, 162.49 68.15 04/30/2024 03:42:12 81.04, 162.47 68.15 0.50 16
8 04/30/2024 04:32:35 -81.06, -29.61 111.80 04/30/2024 04:31:38 -81.06, -29.53 111.81 1.28 57
9 05/02/2024 23:16:18 81.06,-130.67 67.37 05/02/2024 23:16:22 81.06,-130.78 67.36 2.03 4



Historial Predications of SNOs between METOP-C and LANDSAT-8
